Regional Weather Roundup
Issued by NWS

Home | Current Version | Previous Version | Text Only | Print | Product List | Glossary Off
Versions: 1 2 3 4 5 6 7 8 9 10 11 12 13 14 15 16 17 18 19 20 21 22 23 24 25 26 27 28 29 30 31 32 33 34 35 36 37 38 39 40 41 42 43 44 45 46 47 48 49 50

849
ASUS43 KLOT 010103
RWRIL

ILLINOIS REGIONAL WEATHER ROUNDUP
NATIONAL WEATHER SERVICE CHICAGO/ROMEOVILLE IL
800 PM CDT SUN APR 30 2017

NOTE: "FAIR" INDICATES FEW OR NO CLOUDS BELOW 12,000 FEET WITH NO
SIGNIFICANT WEATHER AND/OR OBSTRUCTIONS TO VISIBILITY.

* THESE STATIONS ARE NOT UNDER NWS QUALITY CONTROL. THEY ALSO MAY NOT
  REPORT WEATHER SUCH AS PRECIPITATION OR FOG.

ILZ001-002-007-009-015-016-024-010200-
NORTHWEST ILLINOIS

CITY           SKY/WX    TMP DP  RH WIND       PRES   REMARKS
MOLINE         LGT RAIN  49  46  90 E17G25    29.52F
STERLING*      LGT RAIN  45  44  97 E24       29.57
SAVANNA*       RAIN      44  43  95 NE15G32   29.58F
$$

ILZ003-004-008-010-011-017-018-010200-
NORTH CENTRAL ILLINOIS

CITY           SKY/WX    TMP DP  RH WIND       PRES   REMARKS
ROCKFORD       LGT RAIN  44  41  89 NE17G24   29.67F FOG
FREEPORT*      CLOUDY    42  41  97 NE21      29.67F FOG
ROCHELLE*      RAIN      44  43  97 NE18G24   29.64F
DE KALB*       LGT RAIN  43  43  98 NE16G22   29.65F
PERU*          CLOUDY    46  44  96 E18G24    29.58F
$$

ILZ005-006-012>014-019>023-010200-
NORTHEAST ILLINOIS

CITY           SKY/WX    TMP DP  RH WIND       PRES   REMARKS
CHICAGO-OHARE  HVY RAIN  44  42  93 NE10      29.68F FOG
CHICAGO-MIDWAY CLOUDY    45  45 100 NE10      29.67F
AURORA         LGT RAIN  45  44  97 NE18G24   29.64F FOG
LANSING*       LGT RAIN  46  46 100 NW3       29.69S
JOLIET*        DRIZZLE   47  46  98 NE9       29.64F
WAUKEGAN       LGT RAIN  42  42 100 NE13G21   29.70F FOG
DUPAGE AIRPORT RAIN      44  44 100 NE13      29.66F FOG
KANKAKEE*      CLOUDY    50  49  97 NE10      29.63F FOG
WHEELING       HVY RAIN  43  43 100 VRB7      29.72F FOG
MORRIS*        LGT RAIN  46  45  97 NE7       29.61F
NORTHERLY ISL    N/A     44  43  96 N14         N/A
$$

LMZ740>746-010200-
SOUTHERN LAKE MICHIGAN

STATION/POSITION SKY/WX   TEMP    WIND        PRES    VSBY  WAVE
                          AIR SEA DIR/SP/G                  HT/PER
                          (F)     (DEG/KT/KT) (MB)    (MI)  (FT/S)
SOUTHERN BUOY              42 41   50/ 12/ 14 1008.1          3/ 6
HARRISON CRIB              43      10/ 15/ 15   N/A
BURNHAM HARBOR             44      20/ 11/ 14   N/A
CALUMET HARBOR             44      10/  7/ 10 1005.5F
BURNS HARBOR               49      60/  9/ 10 1005.4F
MICHIGAN CITY              49      50/  8/  8   N/A
MICHIGAN CITY 6N           49 48                N/A           3/ 6
ST. JOSEPH                 51 46   70/  8/ 10 1005.6F         2/ 6
$$

ILZ025>027-034>036-040-047-049-050-058-095>099-010200-
WEST-CENTRAL ILLINOIS

CITY           SKY/WX    TMP DP  RH WIND       PRES   REMARKS
QUINCY         LGT RAIN  57  55  93 CALM      29.48S
GALESBURG*     CLOUDY    53  53 100 E12G18    29.48F
MACOMB*        CLOUDY    58  58 100 E15G22    29.47F FOG
JACKSONVILLE*  CLOUDY    68  64  86 S16G24    29.48S
PITTSFIELD*    CLOUDY    62  56  82 SW10G18   29.49R
$$

ILZ028>032-037-038-041>044-048-051>054-059>061-010200-
CENTRAL ILLINOIS

CITY           SKY/WX    TMP DP  RH WIND       PRES   REMARKS
PONTIAC        CLOUDY    50  50  98 NE16      29.59F FOG
BLOOMINGTON    LGT RAIN  65  64  97 SE14      29.55F
DECATUR        TSTM      69  68  96 S17G30    29.53F
PEORIA         LGT RAIN  56  56 100 E13       29.50F FOG
LACON*         TSTM      49  49 100 E17       29.53F
LINCOLN*       CLOUDY    67  67 100 SE14G24   29.51F
SPRINGFIELD    CLOUDY    69  65  86 S21G28    29.51R
TAYLORVILLE    CLOUDY    67  65  96 S17G24    29.52F
$$

ILZ033-039-045-046-055>057-062-063-010200-
EAST-CENTRAL ILLINOIS

CITY           SKY/WX    TMP DP  RH WIND       PRES   REMARKS
CHAMPAIGN      CLOUDY    68  65  90 SE20      29.57F
RANTOUL*       CLOUDY    68  66  94 SE13      29.57F
MATTOON        CLOUDY    69  66  90 S12       29.57F
PARIS*         CLOUDY   N/A N/A N/A SE12      29.61F
$$

ILZ079-100>102-010200-
SOUTHWEST ILLINOIS

CITY           SKY/WX    TMP DP  RH WIND       PRES   REMARKS
BELLEVILLE     CLOUDY    68  68 100 E12G17    29.51F
CAHOKIA*       CLOUDY    68  62  81 S12       29.51S
SPARTA*        CLOUDY    66  63  88 S16G24    29.55F
$$

ILZ064>066-069>071-074>076-080>082-084>086-088>090-092>094-010200-
SOUTH-CENTRAL ILLINOIS

CITY           SKY/WX    TMP DP  RH WIND       PRES   REMARKS
CARBONDALE     CLOUDY    69  65  86 S17G29    29.58S
CAIRO*         CLOUDY    68  66  92 S14G20    29.62S
EFFINGHAM*     RAIN      69  69 100 SE10G16   29.58F
MARION         CLOUDY    70  68  94 S17G24    29.60R
MT. VERNON     LGT RAIN  69  66  90 S21G26    29.58S
SALEM*         CLOUDY    71  65  80 S14G26    29.57R
METROPOLIS*    LGT RAIN  69  66  91 S12G22    29.64R
$$

ILZ067-068-072-073-078-083-087-091-010200-
SOUTHEAST ILLINOIS

CITY           SKY/WX    TMP DP  RH WIND       PRES   REMARKS
LAWRENCEVILLE  CLOUDY    71  66  84 S20G26    29.62F
FLORA*         CLOUDY    72  68  87 S16       29.58F
FAIRFIELD*     CLOUDY    69  68  97 SE6       29.56F
HARRISBURG*    HVY RAIN  69  68  97 S20G30    29.61R
ROBINSON*      CLOUDY    69  66  90 S14       29.63F
CARMI*         CLOUDY    71  66  84 S23G35    29.61S
$$

ABBREVIATIONS USED IN REMARKS
   TC - TEMPERATURE IN CELSIUS
  WCI - WIND CHILL INDEX
   HX - HEAT INDEX
  VSB - VISIBILITY
$$





USA.gov is the U.S. government's official web portal to all federal, state and local government web resources and services.